GW2344 Weather Reports


time (UTC)temp
F
wind
direction
speed
knots
gust
knots
rain 1hr
in
rain 24hr
in
rain mn
in
humidity
%
barometer
mb
20260508004628 73 217 5.2 7.0 0.00 0.00 0.00 32 1011.9
20260508004125 73 190 3.5 5.2 0.00 0.00 0.00 31 1011.5
20260508003621 74 252 3.5 5.2 0.00 0.00 0.00 31 1011.7
20260508003119 74 352 3.5 4.3 0.00 0.00 0.00 29 1011.5
20260508002616 74 97 4.3 5.2 0.00 0.00 0.00 29 1011.5
20260508002114 74 299 1.7 1.7 0.00 0.00 0.00 30 1011.5
20260508001608 74 94 2.6 5.2 0.00 0.00 0.00 30 1011.4
20260508001105 74 165 3.5 4.3 0.00 0.00 0.00 31 1011.5
20260508000601 74 31 3.5 5.2 0.00 0.00 0.00 31 1011.7
20260508000058 74 177 4.3 5.2 0.00 0.00 0.00 30 1011.4
20260507235555 75 127 5.2 8.7 0.00 0.00 0.00 31 1011.4
20260507235052 75 94 3.5 5.2 0.00 0.00 0.00 31 1011.5
20260507234548 75 234 4.3 6.1 0.00 0.00 0.00 31 1011.7
20260507234045 74 319 4.3 6.1 0.00 0.00 0.00 30 1011.9
20260507233542 75 227 4.3 5.2 0.00 0.00 0.00 32 1011.7
20260507233041 76 246 3.5 5.2 0.00 0.00 0.00 31 1011.7
20260507232536 75 79 2.6 4.3 0.00 0.00 0.00 33 1011.4
20260507232034 75 116 2.6 4.3 0.00 0.00 0.00 32 1011.5
20260507231530 75 69 1.7 1.7 0.00 0.00 0.00 32 1011.5
20260507231028 74 233 3.5 4.3 0.00 0.00 0.00 33 1011.7
20260507230524 75 273 3.5 6.1 0.00 0.00 0.00 30 1011.5
20260507230021 76 81 2.6 2.6 0.00 0.00 0.00 31 1011.7
20260507225516 75 80 1.7 2.6 0.00 0.00 0.00 34 1011.9
20260507225012 73 278 1.7 1.7 0.00 0.00 0.00 32 1011.5
20260507224508 72 333 3.5 5.2 0.00 0.00 0.00 34 1011.8
20260507224005 71 106 1.7 2.6 0.00 0.00 0.00 36 1012.0
20260507223501 73 149 4.3 5.2 0.00 0.00 0.00 33 1012.0
20260507222958 75 157 4.3 7.0 0.00 0.00 0.00 30 1011.9
20260507222455 76 205 4.3 6.1 0.00 0.00 0.00 31 1011.7
20260507221951 76 1 1.7 2.6 0.00 0.00 0.00 32 1011.9
20260507221448 75 72 3.5 5.2 0.00 0.00 0.00 30 1011.9
20260507220945 76 73 2.6 2.6 0.00 0.00 0.00 34 1011.9
20260507220442 76 113 2.6 4.3 0.00 0.00 0.00 31 1011.8
20260507215938 75 85 0.9 1.7 0.00 0.00 0.00 32 1011.9
20260507215430 74 79 2.6 5.2 0.00 0.00 0.00 30 1012.0
20260507214927 75 356 1.7 1.7 0.00 0.00 0.00 29 1012.1
20260507214425 73 60 1.7 2.6 0.00 0.00 0.00 32 1012.2
20260507213920 75 184 2.6 4.3 0.00 0.00 0.00 32 1011.9
20260507213417 76 60 1.7 1.7 0.00 0.00 0.00 33 1012.0
20260507212914 75 239 1.7 4.3 0.00 0.00 0.00 35 1012.2
20260507212409 73 209 2.6 2.6 0.00 0.00 0.00 31 1012.5
20260507211906 72 359 1.7 1.7 0.00 0.00 0.00 34 1012.3
20260507211403 73 67 0.9 0.9 0.00 0.00 0.00 33 1012.6
20260507210900 71 64 0.9 0.9 0.00 0.00 0.00 36 1012.5
20260507210356 72 221 2.6 4.3 0.00 0.00 0.00 35 1012.3
20260507205853 72 104 3.5 4.3 0.00 0.00 0.00 34 1012.5
20260507205350 71 92 4.3 6.1 0.00 0.00 0.00 36 1012.6
20260507204846 69 50 4.3 5.2 0.00 0.00 0.00 36 1012.4
20260507204343 70 39 5.2 7.0 0.00 0.00 0.00 38 1012.5
20260507203841 71 73 3.5 4.3 0.00 0.00 0.00 38 1012.5
20260507203339 75 37 2.6 2.6 0.00 0.00 0.00 33 1012.6
20260507202835 73 70 0.9 0.9 0.00 0.00 0.00 36 1012.6
20260507202331 72 246 4.3 6.1 0.00 0.00 0.00 35 1012.8
20260507201827 71 278 2.6 5.2 0.00 0.00 0.00 37 1012.8
20260507201323 72 175 2.6 4.3 0.00 0.00 0.00 34 1012.8
20260507200819 70 42 0.0 0.9 0.00 0.00 0.00 37 1012.6
20260507200315 69 238 2.6 2.6 0.00 0.00 0.00 37 1012.8
20260507195811 69 59 2.6 2.6 0.00 0.00 0.00 39 1013.0
20260507195309 70 63 2.6 2.6 0.00 0.00 0.00 38 1012.8
20260507194806 71 71 0.9 0.9 0.00 0.00 0.00 39 1013.0
20260507194302 70 65 0.0 0.9 0.00 0.00 0.00 41 1012.9
20260507193759 69 68 2.6 4.3 0.00 0.00 0.00 40 1013.0
20260507193256 70 67 3.5 5.2 0.00 0.00 0.00 40 1013.1
20260507192751 68 81 2.6 4.3 0.00 0.00 0.00 39 1013.2
20260507192249 70 68 0.0 0.0 0.00 0.00 0.00 38 1013.1
20260507191745 71 74 1.7 1.7 0.00 0.00 0.00 37 1013.3
20260507191242 71 64 0.9 1.7 0.00 0.00 0.00 39 1013.2
20260507190738 70 71 0.9 1.7 0.00 0.00 0.00 39 1013.2
20260507190237 69 113 0.9 0.9 0.00 0.00 0.00 39 1013.3
20260507185735 69 31 0.9 0.9 0.00 0.00 0.00 41 1013.1
20260507185231 69 95 0.9 1.7 0.00 0.00 0.00 41 1013.2
20260507184729 71 57 0.9 0.9 0.00 0.00 0.00 41 1013.1
20260507184227 70 59 0.0 0.0 0.00 0.00 0.00 38 1013.0
20260507183723 69 54 2.6 4.3 0.00 0.00 0.00 40 1013.2
20260507183220 70 59 2.6 4.3 0.00 0.00 0.00 39 1013.2
20260507182717 71 128 2.6 2.6 0.00 0.00 0.00 40 1013.0
20260507182207 69 68 0.9 0.9 0.00 0.00 0.00 39 1013.3
20260507181704 67 243 2.6 2.6 0.00 0.00 0.00 41 1013.3
20260507181200 67 60 4.3 6.1 0.00 0.00 0.00 45 1013.3
20260507180651 68 45 0.9 0.9 0.00 0.00 0.00 40 1013.3
20260507180148 68 63 1.7 2.6 0.00 0.00 0.00 42 1013.3
20260507175643 66 133 1.7 2.6 0.00 0.00 0.00 42 1013.4
20260507175141 67 72 3.5 4.3 0.00 0.00 0.00 42 1013.4
20260507174638 68 60 3.5 4.3 0.00 0.00 0.00 44 1013.6
20260507174136 67 51 1.7 1.7 0.00 0.00 0.00 42 1013.6
20260507173633 68 40 4.3 5.2 0.00 0.00 0.00 41 1013.7
20260507173130 66 47 0.9 0.9 0.00 0.00 0.00 44 1013.7
20260507172626 65 43 2.6 4.3 0.00 0.00 0.00 43 1014.1
20260507172124 66 49 3.5 4.3 0.00 0.00 0.00 43 1013.9
20260507171618 66 96 1.7 2.6 0.00 0.00 0.00 43 1014.1
20260507171116 65 168 3.5 4.3 0.00 0.00 0.00 43 1014.0
20260507170613 65 65 0.9 0.9 0.00 0.00 0.00 45 1014.0
20260507170110 64 72 0.9 0.9 0.00 0.00 0.00 47 1014.1
20260507165605 65 67 4.3 5.2 0.00 0.00 0.00 48 1014.0
20260507165102 64 47 0.0 0.9 0.00 0.00 0.00 45 1014.2
20260507164558 64 40 1.7 1.7 0.00 0.00 0.00 48 1014.0
20260507164055 62 42 1.7 2.6 0.00 0.00 0.00 51 1014.1
20260507163552 63 54 2.6 4.3 0.00 0.00 0.00 49 1014.2
20260507163045 62 44 3.5 4.3 0.00 0.00 0.00 52 1014.1
20260507162544 63 60 0.0 0.0 0.00 0.00 0.00 60 1014.1
20260507162041 62 43 3.5 4.3 0.00 0.00 0.00 59 1014.0
20260507161539 61 42 2.6 2.6 0.00 0.00 0.00 60 1014.3
20260507161029 62 46 2.6 2.6 0.00 0.00 0.00 59 1014.2
20260507160525 61 81 0.9 0.9 0.00 0.00 0.00 61 1014.3
20260507160022 61 127 0.9 1.7 0.00 0.00 0.00 62 1014.1
20260507155517 61 92 0.9 1.7 0.00 0.00 0.00 62 1014.2
20260507155014 60 55 0.0 0.0 0.00 0.00 0.00 66 1014.1
20260507154511 59 63 0.0 0.0 0.00 0.00 0.00 64 1014.3
20260507154009 58 58 0.0 0.0 0.00 0.00 0.00 67 1014.3
20260507153505 58 63 1.7 1.7 0.00 0.00 0.00 69 1014.2
20260507153001 59 245 2.6 2.6 0.00 0.00 0.00 68 1014.2
20260507152457 60 27 1.7 1.7 0.00 0.00 0.00 65 1014.4
20260507151954 59 47 1.7 1.7 0.00 0.00 0.00 68 1014.2
20260507151450 58 77 1.7 1.7 0.00 0.00 0.00 69 1014.1
20260507150947 56 60 0.0 0.0 0.00 0.00 0.00 70 1014.4
20260507150443 55 82 2.6 2.6 0.00 0.00 0.00 74 1014.4
20260507145940 55 59 0.9 1.7 0.00 0.00 0.00 73 1014.4
20260507145436 54 68 0.9 0.9 0.00 0.00 0.00 74 1014.3
20260507144933 54 63 0.0 0.0 0.00 0.00 0.00 75 1014.2
20260507144430 53 67 0.0 0.9 0.00 0.00 0.00 76 1014.2
20260507143927 53 263 1.7 1.7 0.00 0.00 0.00 74 1013.9
20260507143424 53 62 0.0 0.0 0.00 0.00 0.00 76 1014.2
20260507142921 52 112 2.6 2.6 0.00 0.00 0.00 77 1013.9
20260507142416 52 58 0.9 0.9 0.00 0.00 0.00 78 1014.1
20260507141914 52 60 0.0 0.0 0.00 0.00 0.00 77 1014.2
20260507141410 52 129 2.6 4.3 0.00 0.00 0.00 78 1013.7
20260507140907 51 59 0.0 0.0 0.00 0.00 0.00 79 1013.5
20260507140403 50 57 1.7 1.7 0.00 0.00 0.00 78 1013.4
20260507135901 51 59 0.9 0.9 0.00 0.00 0.00 79 1013.6
20260507135358 50 50 2.6 2.6 0.00 0.00 0.00 79 1013.4
20260507134855 49 61 2.6 2.6 0.00 0.00 0.00 81 1013.3
20260507134351 49 55 0.9 0.9 0.00 0.00 0.00 81 1013.3
20260507133847 49 61 0.9 0.9 0.00 0.00 0.00 80 1013.4
20260507133343 48 62 0.9 0.9 0.00 0.00 0.00 81 1013.3
20260507132842 49 58 0.9 0.9 0.00 0.00 0.00 81 1013.3
20260507132338 48 60 0.9 0.9 0.00 0.00 0.00 81 1013.1
20260507131835 47 64 0.0 0.0 0.00 0.00 0.00 82 1013.2
20260507131332 48 59 0.0 0.9 0.00 0.00 0.00 81 1013.1
20260507130829 47 53 0.9 0.9 0.00 0.00 0.00 82 1013.2
20260507130326 47 61 0.0 0.0 0.00 0.00 0.00 83 1013.1
20260507125825 47 60 0.0 0.9 0.00 0.00 0.00 82 1013.1
20260507125321 47 60 0.0 0.0 0.00 0.00 0.00 83 1013.1
20260507124819 46 60 0.0 0.0 0.00 0.00 0.00 84 1013.0
20260507124315 46 61 0.0 0.0 0.00 0.00 0.00 84 1013.1
20260507123814 46 61 0.0 0.0 0.00 0.00 0.00 84 1013.0
20260507123311 46 61 0.0 0.0 0.00 0.00 0.00 84 1013.0
20260507122806 45 48 0.9 0.9 0.00 0.00 0.00 85 1013.0
20260507122256 45 65 0.0 0.0 0.00 0.00 0.00 85 1012.9
20260507121752 45 62 0.0 0.0 0.00 0.00 0.00 83 1013.0
20260507121248 47 60 0.0 0.0 0.00 0.00 0.00 81 1012.8
20260507120744 48 64 0.0 0.0 0.00 0.00 0.00 80 1012.6
20260507120241 48 74 0.9 0.9 0.00 0.00 0.00 80 1012.6
20260507115737 48 76 0.9 0.9 0.00 0.00 0.00 79 1012.5
20260507115233 48 3 1.7 1.7 0.00 0.00 0.00 80 1012.8
20260507114729 48 63 0.0 0.0 0.00 0.00 0.00 80 1012.6
20260507114227 49 63 0.0 0.0 0.00 0.00 0.00 78 1012.5
20260507113724 49 67 0.0 0.0 0.00 0.00 0.00 77 1012.5
20260507113221 49 54 0.9 0.9 0.00 0.00 0.00 77 1012.6
20260507112718 48 64 0.9 0.9 0.00 0.00 0.00 78 1012.4
20260507112216 49 61 0.0 0.0 0.00 0.00 0.00 76 1012.6
20260507111713 49 64 0.0 0.0 0.00 0.00 0.00 76 1012.4
20260507111210 49 63 0.0 0.0 0.00 0.00 0.00 76 1012.3
20260507110705 50 64 0.0 0.0 0.00 0.00 0.00 74 1012.3
20260507110202 51 66 0.9 0.9 0.00 0.00 0.00 72 1012.3
20260507105659 49 58 0.9 0.9 0.00 0.00 0.00 76 1012.2
20260507105155 48 62 0.0 0.0 0.00 0.00 0.00 78 1012.2
20260507104653 48 65 0.0 0.9 0.00 0.00 0.00 80 1012.3
20260507104149 48 62 0.0 0.9 0.00 0.00 0.00 78 1012.2
20260507103645 47 69 0.0 0.0 0.00 0.00 0.00 80 1011.9
20260507103142 48 61 0.0 0.9 0.00 0.00 0.00 78 1011.9
20260507102638 48 66 0.0 0.0 0.00 0.00 0.00 79 1012.1
20260507102134 49 65 0.0 0.0 0.00 0.00 0.00 77 1011.8
20260507101630 50 52 0.9 0.9 0.00 0.00 0.00 77 1011.8
20260507101126 50 45 1.7 1.7 0.00 0.00 0.00 76 1011.8
20260507100624 50 64 0.0 0.0 0.00 0.00 0.00 76 1011.9
20260507100122 50 63 0.0 0.0 0.00 0.00 0.00 75 1011.5
20260507095620 50 59 0.0 0.0 0.00 0.00 0.00 76 1011.8
20260507095116 49 62 0.9 0.9 0.00 0.00 0.00 78 1011.4
20260507094612 48 63 0.0 0.0 0.00 0.00 0.00 80 1011.7
20260507094109 50 62 0.0 0.0 0.00 0.00 0.00 77 1011.4
20260507093607 50 64 0.0 0.0 0.00 0.00 0.00 77 1011.7
20260507093106 49 62 0.9 0.9 0.00 0.00 0.00 78 1011.5
20260507092601 50 61 0.0 0.9 0.00 0.00 0.00 75 1011.3
20260507092058 50 63 0.0 0.9 0.00 0.00 0.00 77 1011.2
20260507091555 50 67 0.0 0.0 0.00 0.00 0.00 77 1011.3
20260507091051 50 64 0.0 0.0 0.00 0.00 0.00 77 1011.4
20260507090546 50 60 0.0 0.9 0.00 0.00 0.00 77 1011.3
20260507090038 51 60 0.0 0.0 0.00 0.00 0.00 76 1011.2
20260507085535 52 63 0.0 0.0 0.00 0.00 0.00 73 1011.3
20260507085032 53 64 0.0 0.0 0.00 0.00 0.00 71 1011.2
20260507084528 53 64 0.0 0.0 0.00 0.00 0.00 71 1011.3
20260507084026 53 63 0.0 0.0 0.00 0.00 0.00 71 1011.1
20260507083521 53 62 0.0 0.0 0.00 0.00 0.00 70 1011.2
20260507083019 54 61 0.0 0.0 0.00 0.00 0.00 69 1011.4
20260507082515 54 65 0.0 0.0 0.00 0.00 0.00 69 1011.4
20260507082011 54 64 0.0 0.0 0.00 0.00 0.00 69 1011.7
20260507081508 55 83 0.0 0.9 0.00 0.00 0.00 68 1011.4
20260507081005 55 62 0.0 0.0 0.00 0.00 0.00 67 1011.4
20260507080500 56 77 0.9 0.9 0.00 0.00 0.00 65 1011.7
20260507075956 56 64 0.0 0.0 0.00 0.00 0.00 64 1011.7
20260507075452 57 63 0.0 0.0 0.00 0.00 0.00 63 1011.4
20260507074949 57 68 0.9 0.9 0.00 0.00 0.00 62 1011.3
20260507074446 57 62 0.0 0.0 0.00 0.00 0.00 63 1011.2
20260507073944 57 63 0.0 0.0 0.00 0.00 0.00 63 1011.4
20260507073440 57 65 0.0 0.0 0.00 0.00 0.00 61 1011.3
20260507072936 57 64 0.0 0.9 0.00 0.00 0.00 62 1011.2
20260507072433 57 63 0.0 0.0 0.00 0.00 0.00 62 1011.3
20260507071926 58 67 0.0 0.0 0.00 0.00 0.00 61 1011.2
20260507071422 59 62 0.0 0.0 0.00 0.00 0.00 58 1011.4
20260507070918 60 53 0.0 0.9 0.00 0.00 0.00 56 1011.3
20260507070416 60 69 1.7 1.7 0.00 0.00 0.00 55 1011.2
20260507065913 60 49 1.7 2.6 0.00 0.00 0.00 54 1011.1
20260507065409 60 67 0.9 0.9 0.00 0.00 0.00 54 1011.3
20260507064906 61 67 0.0 0.0 0.00 0.00 0.00 53 1011.1
20260507064404 61 61 0.9 0.9 0.00 0.00 0.00 52 1011.1
20260507063857 62 63 0.0 0.0 0.00 0.00 0.00 52 1011.2
20260507063354 62 64 0.9 0.9 0.00 0.00 0.00 51 1011.1
20260507062850 64 65 0.9 0.9 0.00 0.00 0.00 48 1011.1
20260507062347 64 74 0.9 1.7 0.00 0.00 0.00 47 1011.3
20260507061845 64 63 1.7 1.7 0.00 0.00 0.00 47 1011.0
20260507061343 64 197 1.7 1.7 0.00 0.00 0.00 48 1011.1
20260507060841 64 247 3.5 5.2 0.00 0.00 0.00 48 1011.1
20260507060338 65 123 2.6 2.6 0.00 0.00 0.00 47 1011.2
20260507055835 64 38 2.6 4.3 0.00 0.00 0.00 46 1011.2
20260507055329 64 227 4.3 7.8 0.00 0.00 0.00 46 1011.1
20260507054826 64 59 0.0 0.9 0.00 0.00 0.00 46 1011.2
20260507054322 64 244 3.5 4.3 0.00 0.00 0.00 47 1011.3
20260507053820 64 241 3.5 4.3 0.00 0.00 0.00 45 1011.2
20260507053317 65 245 4.3 5.2 0.00 0.00 0.00 45 1011.2
20260507052816 64 222 2.6 4.3 0.00 0.00 0.00 45 1011.2
20260507052312 63 232 3.5 5.2 0.00 0.00 0.00 45 1011.3
20260507051810 63 59 0.9 1.7 0.00 0.00 0.00 47 1010.9
20260507051307 63 231 2.6 4.3 0.00 0.00 0.00 48 1011.0
20260507050804 63 27 1.7 1.7 0.00 0.00 0.00 48 1011.2
20260507050300 64 106 1.7 1.7 0.00 0.00 0.00 48 1011.2
20260507045757 63 78 0.9 1.7 0.00 0.00 0.00 48 1011.1
20260507045253 63 65 0.9 0.9 0.00 0.00 0.00 47 1011.1
20260507044751 63 58 1.7 1.7 0.00 0.00 0.00 49 1011.1
20260507044247 66 261 2.6 4.3 0.00 0.00 0.00 40 1010.9
20260507043743 66 248 3.5 5.2 0.00 0.00 0.00 39 1011.0
20260507043240 66 72 2.6 2.6 0.00 0.00 0.00 42 1011.1
20260507042736 66 38 2.6 2.6 0.00 0.00 0.00 41 1011.0
20260507042231 65 227 3.5 4.3 0.00 0.00 0.00 40 1010.9
20260507041730 65 78 0.0 0.9 0.00 0.00 0.00 42 1011.1
20260507041226 65 65 1.7 2.6 0.00 0.00 0.00 41 1011.0
20260507040723 63 231 2.6 4.3 0.00 0.00 0.00 43 1011.1
20260507040219 64 62 0.0 0.0 0.00 0.00 0.00 46 1010.9
20260507035715 62 75 0.9 1.7 0.00 0.00 0.00 47 1010.8
20260507035211 61 75 0.9 0.9 0.00 0.00 0.00 49 1010.9
20260507034708 59 65 0.0 0.0 0.00 0.00 0.00 58 1010.8
20260507034205 59 67 0.9 0.9 0.00 0.00 0.00 62 1011.0
20260507033704 58 61 0.0 0.0 0.00 0.00 0.00 64 1010.6
20260507033200 59 65 0.0 0.0 0.00 0.00 0.00 64 1010.7
20260507032658 59 62 0.0 0.0 0.00 0.00 0.00 64 1010.6
20260507032153 60 65 0.0 0.0 0.00 0.00 0.00 62 1010.6
20260507031650 61 64 0.0 0.0 0.00 0.00 0.00 60 1010.6
20260507031147 61 64 0.0 0.0 0.00 0.00 0.00 58 1010.7
20260507030644 63 65 0.0 0.0 0.00 0.00 0.00 54 1010.6
20260507030142 63 70 0.0 0.0 0.00 0.00 0.00 53 1010.2
20260507025639 64 63 0.9 0.9 0.00 0.00 0.00 53 1010.2
20260507025136 66 58 0.9 0.9 0.00 0.00 0.00 48 1010.4
20260507024633 67 231 2.6 4.3 0.00 0.00 0.00 41 1010.3
20260507024130 66 161 3.5 7.0 0.00 0.00 0.00 42 1010.0
20260507023626 66 137 2.6 2.6 0.00 0.00 0.00 43 1010.2
20260507023124 66 102 0.9 0.9 0.00 0.00 0.00 43 1010.2
20260507022620 64 71 0.9 0.9 0.00 0.00 0.00 50 1010.1
20260507022115 65 63 0.0 0.0 0.00 0.00 0.00 53 1009.9
20260507021612 64 70 0.9 0.9 0.00 0.00 0.00 53 1010.1
20260507021108 64 71 0.0 0.0 0.00 0.00 0.00 56 1010.3
20260507020607 64 53 0.0 0.9 0.00 0.00 0.00 59 1010.0
20260507015601 65 61 0.0 0.9 0.00 0.00 0.00 57 1010.2
20260507015058 65 26 0.0 0.9 0.00 0.00 0.00 56 1010.4
20260507014555 66 67 0.9 0.9 0.00 0.00 0.00 51 1010.4
20260507014051 66 67 0.0 0.0 0.00 0.00 0.00 51 1010.2
20260507013548 66 65 0.0 0.0 0.00 0.00 0.00 56 1010.2
20260507013045 66 64 0.0 0.0 0.00 0.00 0.00 52 1010.2
20260507012543 66 65 0.0 0.0 0.00 0.00 0.00 53 1010.1
20260507012038 66 64 0.0 0.0 0.00 0.00 0.00 56 1010.3
20260507011536 66 64 0.0 0.0 0.00 0.00 0.00 56 1010.2
20260507011031 66 67 0.0 0.9 0.00 0.00 0.00 59 1010.3
20260507010526 65 67 0.0 0.0 0.00 0.00 0.00 58 1010.2
20260507010023 65 65 0.0 0.0 0.00 0.00 0.00 61 1010.3
20260507005520 65 64 0.0 0.0 0.00 0.00 0.00 61 1010.3
20260507005016 65 46 0.9 1.7 0.00 0.00 0.00 60 1010.3